Weather History for Georgetown, DE

Change the Weather History Date:

Monday, January 28, 2013

  Actual Average Record
Temperature  
Mean Temperature 36 °F 35 °F  
Max Temperature 48 °F 44 °F 71 °F (1974)
Min Temperature 23 °F 27 °F -13 °F (1987)
Degree Days  
Heating Degree Days 29 30  
Month to date heating degree days 776 837  
Since 1 July heating degree days 2190 2419  
Cooling Degree Days 0 0  
Month to date cooling degree days 0 0  
Year to date cooling degree days 0 0  
Moisture  
Dew Point 31 °F    
Average Humidity 78    
Maximum Humidity 89    
Minimum Humidity 66    
Precipitation  
Precipitation T in 0.09 in 1.66 in (1976)
Month to date precipitation 2.30 2.65  
Year to date precipitation 2.30 2.65  
Sea Level Pressure  
Sea Level Pressure 30.31 in    
Wind  
Wind Speed 8 mph (SSW)    
Max Wind Speed 20 mph    
Max Gust Speed 25 mph    
Visibility 6 miles    
Events Rain , Snow    
T = Trace of Precipitation, MM = Missing Value Source: NWS Daily Summary

Daily Weather History Graph

Daily Weather History Graph

Search for Another Location

Airport:

Trip Planner

Search our weather history database for the weather conditions in past years. The results will help you decide how hot, cold, wet, or windy it might be!

Date:

Astronomy

Jan. 28, 2013 Rise Set
Actual Time 7:10 AM EST 5:18 PM EST
Civil Twilight 6:42 AM EST 5:47 PM EST
Nautical Twilight 6:10 AM EST 6:19 PM EST
Astronomical Twilight 5:38 AM EST 6:50 PM EST
Moon 7:09 PM EST 7:36 AM EST
Length of Visible Light 11h 05m
Length of Day
10h 08m
Full, 98% of the Moon is Illuminated
Jan 28
Full
Feb 3
Last Quarter
Feb 10
New
Feb 17
First Quarter
Feb 25
Full

Hourly Weather History & Observations

Time (EST) Temp. Windchill Dew Point Humidity Pressure Visibility Wind Dir Wind Speed Gust Speed Precip Events Conditions
12:54 AM 26.1 °F - 18.0 °F 71% 30.54 in 7.0 mi Calm Calm - N/A   Clear
1:54 AM 27.0 °F - 21.0 °F 78% 30.52 in 6.0 mi Calm Calm - N/A   Haze
2:54 AM 28.9 °F 25.2 °F 21.9 °F 75% 30.49 in 7.0 mi SSW 3.5 mph - N/A   Overcast
3:54 AM 30.0 °F 26.5 °F 21.9 °F 72% 30.48 in 7.0 mi South 3.5 mph - N/A   Overcast
4:54 AM 30.9 °F 26.2 °F 21.9 °F 69% 30.46 in 8.0 mi SSW 4.6 mph - N/A   Overcast
5:54 AM 32.0 °F 25.6 °F 23.0 °F 69% 30.45 in 8.0 mi South 6.9 mph - N/A   Overcast
6:54 AM 32.0 °F 25.6 °F 26.1 °F 79% 30.45 in 2.0 mi SSW 6.9 mph - 0.00 in Snow Light Snow
7:06 AM 32.0 °F 28.7 °F 26.6 °F 80% 30.45 in 4.0 mi South 3.5 mph - 0.00 in Snow Light Snow
7:54 AM 32.0 °F 26.4 °F 27.0 °F 82% 30.45 in 3.0 mi South 5.8 mph - 0.00 in Rain Light Freezing Rain
8:54 AM 33.1 °F 26.1 °F 28.9 °F 85% 30.44 in 3.0 mi SSW 8.1 mph - 0.00 in Rain Light Freezing Rain
9:08 AM 33.8 °F 27.7 °F 28.4 °F 81% 30.43 in 3.0 mi South 6.9 mph - 0.00 in   Overcast
9:54 AM 34.0 °F 27.2 °F 30.0 °F 85% 30.41 in 3.0 mi SSW 8.1 mph - 0.00 in   Overcast
10:37 AM 33.8 °F 25.3 °F 30.2 °F 87% 30.39 in 3.0 mi SSW 11.5 mph - 0.00 in   Overcast
10:54 AM 34.0 °F 26.6 °F 30.9 °F 89% 30.39 in 3.0 mi SW 9.2 mph - 0.00 in Rain Light Rain
11:27 AM 35.6 °F 29.2 °F 32.0 °F 87% 30.36 in 2.5 mi SSW 8.1 mph - 0.00 in Rain Light Rain
11:34 AM 35.6 °F 28.6 °F 32.0 °F 87% 30.36 in 3.0 mi SSW 9.2 mph - 0.00 in Rain Light Rain
11:49 AM 35.6 °F 28.0 °F 32.0 °F 87% 30.34 in 2.5 mi SSW 10.4 mph - 0.00 in Rain Light Rain
11:54 AM 35.1 °F 26.9 °F 33.1 °F 92% 30.33 in 3.0 mi SSW 11.5 mph - 0.00 in   Overcast
12:54 PM 37.0 °F 29.3 °F 33.1 °F 86% 30.27 in 4.0 mi SSW 11.5 mph - 0.00 in   Overcast
1:54 PM 39.9 °F 31.4 °F 35.1 °F 83% 30.20 in 6.0 mi SW 16.1 mph 24.2 mph N/A   Haze
2:03 PM 41.0 °F 34.3 °F 35.6 °F 81% 30.19 in 6.0 mi SW 11.5 mph 23.0 mph N/A   Haze
2:54 PM 43.0 °F 36.8 °F 34.0 °F 71% 30.18 in 8.0 mi WSW 11.5 mph 17.3 mph N/A   Clear
3:54 PM 43.0 °F 35.7 °F 33.1 °F 68% 30.16 in 9.0 mi SW 15.0 mph 21.9 mph N/A   Scattered Clouds
4:54 PM 42.1 °F 35.7 °F 33.1 °F 70% 30.14 in 8.0 mi SW 11.5 mph - N/A   Overcast
5:54 PM 43.0 °F 37.7 °F 34.0 °F 71% 30.14 in 10.0 mi SW 9.2 mph - N/A   Overcast
6:54 PM 43.0 °F 37.7 °F 36.0 °F 76% 30.13 in 9.0 mi SW 9.2 mph - 0.00 in Rain Light Rain
7:54 PM 44.1 °F 39.5 °F 37.0 °F 76% 30.11 in 10.0 mi SW 8.1 mph - 0.00 in   Overcast
8:54 PM 44.1 °F 39.0 °F 36.0 °F 73% 30.10 in 10.0 mi SW 9.2 mph - N/A   Overcast
9:54 PM 44.1 °F 39.5 °F 37.0 °F 76% 30.08 in 10.0 mi SW 8.1 mph - N/A   Mostly Cloudy
10:54 PM 46.9 °F - 39.0 °F 74% 30.07 in 10.0 mi SW 11.5 mph - N/A   Clear
11:54 PM 48.0 °F - 39.9 °F 74% 30.08 in 10.0 mi SW 6.9 mph - N/A   Scattered Clouds